Upstream stations:
Downstream station:
SHEF ID: ARCK1 ARKANSAS R AT ARKANSAS CITY, KS
STATION TYPE:
Regulating: Stage = 11.00, Flow = 16307
PRECIP STAGE RIV-FLOW WIND-DIRWIND-SPEED VOLTAGE BAT-LOAD
in ft cfs deg mph volt volt
Ccp-Rev Ccp-Rev Ccp-Rev Ccp-Rev Ccp-Rev Ccp-Rev Ccp-Rev
(US/Central)
03/03 00:00 0.00 3.93 780 ---- ---- ---- 12.41
03/03 01:00 0.00 3.94 789 ---- ---- ---- 12.41
03/03 02:00 0.00 3.93 780 ---- ---- ---- 12.33
03/03 03:00 0.00 3.93 780 ---- ---- ---- 12.33
03/03 04:00 0.00 3.93 780 ---- ---- ---- 12.33
03/03 05:00 0.00 3.94 789 ---- ---- ---- 12.25
03/03 06:00 0.00 3.92 771 ---- ---- ---- 12.25
03/03 07:00 0.00 3.94 789 ---- ---- ---- 12.25
03/03 08:00 0.00 3.93 780 ---- ---- ---- 12.25
03/03 09:00 0.00 3.92 771 ---- ---- ---- 12.65
03/03 10:00 0.00 3.93 780 ---- ---- ---- 13.29
03/03 11:00 0.00 3.93 780 ---- ---- ---- 13.21
03/03 12:00 0.00 3.94 789 ---- ---- ---- 12.65
03/03 13:00 0.00 3.93 780 ---- ---- ---- 13.13
03/03 14:00 0.00 3.94 789 ---- ---- ---- 13.13
03/03 15:00 0.00 3.92 771 ---- ---- ---- 13.13
03/03 16:00 0.00 3.92 771 ---- ---- ---- 13.05
03/03 17:00 0.00 3.91 762 ---- ---- ---- 13.21
03/03 18:00 0.00 3.91 762 ---- ---- ---- 12.65
03/03 19:00 0.00 3.90 753 ---- ---- ---- 12.57
03/03 20:00 0.00 3.91 762 ---- ---- ---- 12.57
03/03 21:00 0.00 3.91 762 ---- ---- ---- 12.49
03/03 22:00 0.00 3.89 744 ---- ---- ---- 12.49
03/03 23:00 0.00 3.90 753 ---- ---- ---- 12.41